Regional Weather Roundup
Issued by NWS

Home | Current Version | Previous Version | Graphics & Text | Print | Product List | Glossary On
Versions: 1 2 3 4 5 6 7 8 9 10 11 12 13 14 15 16 17 18 19 20 21 22 23 24 25 26 27 28 29 30 31 32 33 34 35 36 37 38 39 40 41 42 43 44 45 46 47 48 49 50
000
ASUS45 KTFX 011104
RWRMT
MONTANA REGIONAL WEATHER ROUNDUP
NATIONAL WEATHER SERVICE GREAT FALLS MT
500 AM MDT TUE SEP 01 2015

NOTE: "FAIR" INDICATES FEW OR NO CLOUDS BELOW 12000 FEET WITH NO
SIGNIFICANT WEATHER AND/OR OBSTRUCTIONS TO VISIBILITY.

MTZ001>007-043-011200-
WEST OF THE DIVIDE

CITY           SKY/WX    TMP DP  RH WIND       PRES   REMARKS
KALISPELL      PTSUNNY   45  40  82 CALM      29.89R
MISSOULA       MOCLDY    46  42  86 CALM      29.95S
BUTTE          CLEAR     42  37  82 S3        30.02S
MULLAN PASS    CLOUDY    45  41  86 CALM      29.99S
DEER LODGE       N/A     46  37  71 CALM      30.00F
EUREKA           N/A     61  43  51 SE9       29.84S
HAMILTON         N/A     55  41  58 S7        29.94S
LIBBY            N/A     50  45  81 E3        29.85F
$$

MTZ008-052>055-011200-
SOUTHWEST MONTANA

CITY           SKY/WX    TMP DP  RH WIND       PRES   REMARKS
BOZEMAN        CLEAR     45  38  76 SW6       29.95S
DILLON         CLEAR     51  31  46 W5        29.98S
W YELLOWSTONE  CLEAR     28  25  86 CALM      30.12S
$$

MTZ009-010-012-014-046-048-049-054-011200-
EAST SLOPES AND CENTRAL MONTANA

CITY           SKY/WX    TMP DP  RH WIND       PRES   REMARKS
CUT BANK       MOCLDY    60  32  34 SW21G29   29.78F
GREAT FALLS    MOCLDY    62  40  44 S14       29.83S
HELENA         CLEAR     52  40  63 CALM      29.91S
$$

MTZ011-013-016-021-045-047-050-051-011200-
NORTH CENTRAL MONTANA

CITY           SKY/WX    TMP DP  RH WIND       PRES   REMARKS
HAVRE          CLOUDY    49  40  71 SE3       29.75F
LEWISTOWN      CLEAR     46  38  73 SE6       29.89S
N BAR RANCH      N/A     52  36  54 NW8       29.90F
CHINOOK          N/A     48  39  71 E5        29.76F
FORT BENTON      N/A     55  37  50 N3        29.80F
$$

MTZ017>020-022>027-061-062-011200-
NORTHEAST MONTANA

CITY           SKY/WX    TMP DP  RH WIND       PRES   REMARKS
GLASGOW        CLEAR     51  43  74 E8        29.79F
JORDAN           N/A     44  34  67 W3        29.82S
SIDNEY         CLEAR     46  39  76 CALM      29.83S
WOLF POINT     CLEAR     46  41  82 CALM      29.81S
PLENTYWOOD       N/A     54  39  58 CALM      29.83R
POPLAR           N/A     46  39  76 N6        29.81F
$$

MTZ028>42-056>058-011200-
SOUTHCENTRAL AND SOUTHEAST MONTANA

CITY           SKY/WX    TMP DP  RH WIND       PRES   REMARKS
BAKER          CLEAR     58  53  84 SE9       29.87F
BILLINGS       PTCLDY    59  36  42 SW14      29.86F
LIVINGSTON     CLEAR     50  34  54 NW16      29.93S
MILES CITY     CLEAR     58  52  80 SE7       29.83S
FORSYTH          N/A     54  39  58 CALM      29.82S
$$

REGIONAL REPORTS...DAKOTAS

CITY           SKY/WX    TMP DP  RH WIND       PRES   REMARKS
WILLISTON      CLEAR     47  43  86 CALM      29.83S
MINOT          CLEAR     55  47  74 SW7       29.82F
DICKINSON      CLEAR     58  50  75 S10       29.86S
BISMARCK       CLEAR     54  51  90 NE5       29.88R
GRAND FORKS    PTCLDY    53  49  86 S5        29.86R
FARGO          MOCLDY    58  56  93 S3        29.88S
BUFFALO SD       N/A     56  54  93 SE6       29.83F
RAPID CITY     CLEAR     53  52  96 W3        29.89F
$$

REGIONAL REPORTS...WYOMING/IDAHO/WASHINGTON

CITY           SKY/WX    TMP DP  RH WIND       PRES   REMARKS
GILLETTE       CLEAR     51  46  83 CALM      29.94R
SHERIDAN       CLEAR     50  41  71 SE5       29.91S
BUFFALO WY     CLEAR     57  34  41 SW9       29.98R
CODY           PTCLDY    55  27  33 S8        29.97F
YELLOWSTONE LA   N/A     33  29  85 VRB3      30.21R
IDAHO FALLS    CLEAR     45  37  73 NW3       30.02S
SALMON         CLEAR     45  36  70 CALM      29.98R
BOISE          CLEAR     61  37  41 SE7       29.91R
SPOKANE        MOCLDY    53  45  74 S10       29.88F
$$

REGIONAL REPORTS...ALBERTA

CITY           SKY/WX    TMP DP  RH WIND       PRES   REMARKS
$$

REGIONAL REPORTS...SASKATCHEWAN

CITY           SKY/WX    TMP DP  RH WIND       PRES   REMARKS
$$


USA.gov is the U.S. government's official web portal to all federal, state and local government web resources and services.